Belize, Belize

8:37 PM CST on March 25, 2017 (GMT -0600)
Philip S W Goldson International

Weather History for MZBZ - May, 2012

Change the Weather History Date:

Wednesday, May 2, 2012

  Actual Average Record
Temperature  
Mean Temperature 82 °F -  
Max Temperature 87 °F 90 °F 96 °F (2005)
Min Temperature 77 °F 76 °F 72 °F (2014)
Cooling Degree Days 17    
Growing Degree Days 32 (Base 50)    
Moisture  
Dew Point 76 °F    
Average Humidity 77    
Maximum Humidity 89    
Minimum Humidity 62    
Precipitation  
Precipitation 0.00 in 0.15 in - ()
Sea Level Pressure  
Sea Level Pressure 29.87 in    
Wind  
Wind Speed 6 mph ()    
Max Wind Speed 12 mph    
Max Gust Speed -    
Visibility 8.0 miles    
Events      
Averages and records for this station are not official NWS values.
T = Trace of Precipitation, MM = Missing Value Source: Averaged Metar Reports

Daily Weather History Graph

Daily Weather History Graph

Search for Another Location

Airport or City:

Trip Planner

Search our weather history database for the weather conditions in past years. The results will help you decide how hot, cold, wet, or windy it might be!

Date:

Astronomy

May. 02, 2012 Rise Set
Actual Time 5:26 AM CST 6:14 PM CST
Civil Twilight 5:03 AM CST 6:36 PM CST
Nautical Twilight 4:36 AM CST 7:03 PM CST
Astronomical Twilight 4:09 AM CST 7:30 PM CST
Moon 2:54 PM CST (5/2) 2:22 AM CST (5/2)
Length of Visible Light 13h 33m
Length of Day
12h 47m
Waxing Gibbous, 84% of the Moon is Illuminated
May 2
Waxing Gibbous
May 5
Full
May 12
Last Quarter
May 20
New
May 28
First Quarter

Hourly Weather History & Observations

Time (CST) Temp. Heat Index Dew Point Humidity Pressure Visibility Wind Dir Wind Speed Gust Speed Precip Events Conditions
12:00 AM 79 °F - 75 °F 85% 29.86 in 12 mi ESE 3.5 mph - -   Scattered Clouds
12:00 AM 78.8 °F - 75.2 °F 89% 29.83 in 6.2 mi ESE 3.5 mph - N/A   Partly Cloudy
3:00 AM 79 °F - 75 °F 84% 29.82 in 12 mi ESE 4.6 mph - -   Scattered Clouds
3:00 AM 78.8 °F - 75.2 °F 89% 29.80 in 6.2 mi ESE 4.6 mph - N/A   Partly Cloudy
6:00 AM 78 °F - 75 °F 89% 29.87 in 12 mi ESE 4.6 mph - -   Scattered Clouds
6:00 AM 78.8 °F - 75.2 °F 89% 29.86 in 6.2 mi ESE 4.6 mph - N/A   Partly Cloudy
7:00 AM 82.4 °F 90.9 °F 77.0 °F 84% 29.89 in 6.2 mi East 5.8 mph - N/A   Scattered Clouds
8:00 AM 84.2 °F 94.1 °F 77.0 °F 79% 29.89 in 6.2 mi East 8.1 mph - N/A   Mostly Cloudy
9:00 AM 84 °F - 77 °F 73% 29.92 in 12 mi ESE 5.8 mph - -   Mostly Cloudy
9:00 AM 84.2 °F 94.1 °F 77.0 °F 79% 29.91 in 6.2 mi ESE 5.8 mph - N/A   Mostly Cloudy
10:00 AM 86.0 °F 96.9 °F 77.0 °F 74% 29.91 in 6.2 mi ESE 6.9 mph - N/A   Mostly Cloudy
11:00 AM 87.8 °F 99.7 °F 77.0 °F 70% 29.90 in 6.2 mi ESE 6.9 mph - N/A   Mostly Cloudy
12:00 PM 87 °F - 76 °F 62% 29.90 in 12 mi East 9.2 mph - -  
12:00 PM 87.8 °F 97.6 °F 75.2 °F 66% 29.89 in 6.2 mi East 9.2 mph - N/A   Mostly Cloudy
1:00 PM 87.8 °F 99.7 °F 77.0 °F 70% 29.87 in 6.2 mi East 11.5 mph - N/A   Mostly Cloudy
2:00 PM 87.8 °F 99.7 °F 77.0 °F 70% 29.85 in 6.2 mi East 11.5 mph - N/A   Mostly Cloudy
3:00 PM 87 °F - 77 °F 66% 29.85 in 12 mi East 11.5 mph - -   Partly Cloudy
3:00 PM 86.0 °F 96.9 °F 77.0 °F 74% 29.84 in 6.2 mi East 11.5 mph - N/A   Scattered Clouds
4:00 PM 87.8 °F 99.7 °F 77.0 °F 70% 29.84 in 6.2 mi East 11.5 mph - N/A   Scattered Clouds
5:00 PM 84.2 °F 94.1 °F 77.0 °F 79% 29.85 in 6.2 mi East 10.4 mph - N/A   Scattered Clouds
6:00 PM 84 °F - 76 °F 71% 29.86 in 12 mi East 8.1 mph - -  
6:00 PM 84.2 °F 92.3 °F 75.2 °F 74% 29.86 in 6.2 mi East 8.1 mph - N/A   Partly Cloudy
7:00 PM 82.4 °F 90.9 °F 77.0 °F 84% 29.87 in 6.2 mi East 8.1 mph - N/A   Partly Cloudy
8:00 PM 82.4 °F 90.9 °F 77.0 °F 84% 29.89 in 6.2 mi East 6.9 mph - N/A   Partly Cloudy
9:00 PM 82 °F - 76 °F 77% 29.91 in 12 mi East 6.9 mph - -   Scattered Clouds
9:00 PM 82.4 °F 89.5 °F 75.2 °F 79% 29.90 in 6.2 mi East 6.9 mph - N/A   Partly Cloudy